Regional Weather Roundup
Issued by NWS

Current Version | Previous Version | Text Only | Print | Product List | Glossary On
Versions: 1 2 3 4 5 6 7 8 9 10 11 12 13 14 15 16 17 18 19 20 21 22 23 24 25 26 27 28 29 30 31 32 33 34 35 36 37 38 39 40 41 42 43 44 45 46 47 48 49 50
000
ASUS44 KFWD 281815
RWRTX
NORTH TEXAS HOURLY WEATHER ROUNDUP
NATIONAL WEATHER SERVICE FORT WORTH TX
100 PM CDT SAT MAY 28 2016

NOTE: "FAIR" INDICATES FEW OR NO CLOUDS BELOW 12,000 FEET WITH NO
SIGNIFICANT WEATHER AND/OR OBSTRUCTIONS TO VISIBILITY.

TXZ118-119-281900-
DALLAS/FORT WORTH METROPLEX

CITY           SKY/WX    TMP DP  RH WIND       PRES   REMARKS
DFW AIRPORT    PTSUNNY   78  68  71 SW9       29.96S
6HR MIN TEMP:  67; 6HR MAX TEMP:  78; 6HR PCP: TRACE;

DALLAS LOVE    CLOUDY    78  68  71 S9        29.97S
6HR MIN TEMP:  67; 6HR MAX TEMP:  78;

FTW MEACHAM    CLOUDY    80  69  69 S12G20    29.96S
6HR MIN TEMP:  67; 6HR MAX TEMP:  80;

DAL-EXECUTIVE  CLOUDY    75  68  78 S5        29.97S
6HR MIN TEMP:  66; 6HR MAX TEMP:  75;

FTW-ALLIANCE   MOSUNNY   80  69  69 S10       29.96S
6HR MIN TEMP:  66; 6HR MAX TEMP:  80; 6HR PCP: TRACE;

FTW-NAS-JRB    PTSUNNY   78  70  76 S9        29.96F
6HR MIN TEMP:  67; 6HR MAX TEMP:  79;

FTW-SPINKS     CLOUDY    77  72  83 S5        29.98S
ARLINGTON      CLOUDY    79  69  71 S6        29.97S
6HR MIN TEMP:  68; 6HR MAX TEMP:  79;

ADDISON        CLOUDY    75  66  73 S12       29.99S
MESQUITE       CLOUDY    77  70  78 E6        29.98
LANCASTER      CLOUDY    74  67  77 SW7       29.99S
6HR MIN TEMP:  66; 6HR MAX TEMP:  74;

$$

TXZ091>094-102>105-117-120-121-131>134-281900-
NORTH CENTRAL TEXAS

CITY           SKY/WX    TMP DP  RH WIND       PRES   REMARKS
SHRMAN/DENISON SUNNY     76  63  63 S8        29.97F
6HR MIN TEMP:  63; 6HR MAX TEMP:  76;

GAINESVILLE    MOSUNNY   79  69  71 S9        29.97F
6HR MIN TEMP:  66; 6HR MAX TEMP:  79;

BOWIE          MOSUNNY   81  68  64 SW7       29.96S
6HR MIN TEMP:  64; 6HR MAX TEMP:  81;

BRIDGEPORT     SUNNY     83  70  64 S7        29.96S
6HR MIN TEMP:  66; 6HR MAX TEMP:  84;

DECATUR        MOSUNNY   78  69  73 SE10      29.96F
6HR MIN TEMP:  65; 6HR MAX TEMP:  78; 6HR PCP:  0.01;

DENTON         PTSUNNY   78  68  71 S10       29.95F
6HR MIN TEMP:  66; 6HR MAX TEMP:  78;

MCKINNEY       MOSUNNY   79  67  66 S6        29.96F
6HR MIN TEMP:  66; 6HR MAX TEMP:  79;

ROCKWALL       CLOUDY    77  69  76 S13       29.97S
6HR MIN TEMP:  65; 6HR MAX TEMP:  77;

TERRELL        CLOUDY    74  68  81 CALM      29.99S
6HR MIN TEMP:  65; 6HR MAX TEMP:  75;

WAXAHACHIE     CLOUDY    74  71  89 SE3       29.98F
6HR MIN TEMP:  65; 6HR MAX TEMP:  74;

CLEBURNE       CLOUDY    81  75  83 SW6       29.98F
GRANBURY       CLOUDY    81  70  69 S9        29.98S
6HR MIN TEMP:  67; 6HR MAX TEMP:  81;

$$

TXZ083>090-098>101-113>116-127>130-139>142-154-155-281900-
WESTERN NORTH TEXAS

CITY           SKY/WX    TMP DP  RH WIND       PRES   REMARKS
WICHITA FALLS  SUNNY     80  66  62 VRB5      29.95S
6HR MIN TEMP:  63; 6HR MAX TEMP:  80;

WF-KICKAPOO    SUNNY     82  64  53 SW5       29.96S
6HR MIN TEMP:  65; 6HR MAX TEMP:  82;

VERNON         SUNNY     80  54  41 NE5       29.97S
6HR MIN TEMP:  66; 6HR MAX TEMP:  91;

ABILENE        SUNNY     86  63  45 SW7       29.96F
6HR MIN TEMP:  64; 6HR MAX TEMP:  87;

ABILENE-DYESS  MOSUNNY   87  58  38 W5        29.95S
6HR MIN TEMP:  66; 6HR MAX TEMP:  87;

BRECKENRIDGE   SUNNY     87  65  49 SW7       29.95S HAZE
6HR MIN TEMP:  67; 6HR MAX TEMP:  87;

GRAHAM         SUNNY     86  67  52 SW9       29.93S
6HR MIN TEMP:  64; 6HR MAX TEMP:  86;

MINERAL WELLS  SUNNY     80  71  74 S8        29.95R
6HR MIN TEMP:  65; 6HR MAX TEMP:  80;

STEPHENVILLE   MOSUNNY   81  71  69 S6        30.00S
6HR MIN TEMP:  65; 6HR MAX TEMP:  81;

COMANCHE       SUNNY     84  74  71 S5        29.97F HX  91
6HR MIN TEMP:  62; 6HR MAX TEMP:  84;

BROWNWOOD      SUNNY     84  72  65 S12       29.96F
COLEMAN        SUNNY     84  68  57 SW7       29.98S
6HR MIN TEMP:  62; 6HR MAX TEMP:  84;

$$

TXZ143>147-156>162-174-175-281900-
CENTRAL TEXAS

CITY           SKY/WX    TMP DP  RH WIND       PRES   REMARKS
WACO           CLOUDY    82  71  69 SW10      29.97R
6HR MIN TEMP:  66; 6HR MAX TEMP:  83;

WACO-MCGREGOR  CLOUDY   N/A N/A N/A SW6         N/A
HILLSBORO      CLOUDY    82  72  71 S9        29.97S
6HR MIN TEMP:  64; 6HR MAX TEMP:  82;

CORSICANA      CLOUDY    79  71  76 VRB6      29.99S
6HR MIN TEMP:  67; 6HR MAX TEMP:  79;

MEXIA          CLOUDY    81  73  75 SW12G23   29.97F
6HR MIN TEMP:  65; 6HR MAX TEMP:  81;

HEARNE         CLOUDY    82  74  78 CALM      29.97F
6HR MIN TEMP:  65; 6HR MAX TEMP:  82;

CAMERON        CLOUDY    82  74  76 SW7       29.96F
6HR MIN TEMP:  65; 6HR MAX TEMP:  83;

TEMPLE         CLOUDY    82  75  79 S14       29.96F
6HR MIN TEMP:  65; 6HR MAX TEMP:  82;

KILLEEN        PTSUNNY   85  74  69 S16G22    29.95F HX  92
6HR MIN TEMP:  64; 6HR MAX TEMP:  85;

KILLEEN-SKYLRK CLOUDY    84  74  71 SW8       29.96F HX  91
6HR MIN TEMP:  65; 6HR MAX TEMP:  84; 6HR PCP: TRACE;

FORT HOOD      CLOUDY    84  75  75 S12       29.94F HX  91
6HR MIN TEMP:  63; 6HR MAX TEMP:  84;

GATESVILLE     PTSUNNY   82  72  69 SW10      29.98F
HAMILTON       MOSUNNY   85  73  67 SW13G20   29.98F HX  92
6HR MIN TEMP:  64; 6HR MAX TEMP:  85;

LAMPASAS       MOSUNNY   83  74  73 SW12      29.96S HX  90
6HR MIN TEMP:  64; 6HR MAX TEMP:  83;

$$

TXZ095>097-106>112-122>126-135>138-148>153-164>167-281900-
EAST TEXAS

CITY           SKY/WX    TMP DP  RH WIND       PRES   REMARKS
PARIS          MOSUNNY   77  61  57 SW3       30.00F
6HR MIN TEMP:  66; 6HR MAX TEMP:  77;

SULPHUR SPRNGS PTSUNNY   76  67  71 N5        30.01F
6HR MIN TEMP:  67; 6HR MAX TEMP:  76;

MOUNT PLEASANT PTSUNNY   75  65  72 W5        30.02F
6HR MIN TEMP:  66; 6HR MAX TEMP:  75;

MINEOLA        CLOUDY    73  68  83 CALM      30.01S
TYLER          CLOUDY    77  67  71 NW3       30.00S
6HR MIN TEMP:  66; 6HR MAX TEMP:  77;

LONGVIEW       PTSUNNY   79  70  74 W9        29.99S
6HR MIN TEMP:  65; 6HR MAX TEMP:  81;

MARSHALL       PTSUNNY   80  68  65 W3        30.01S
6HR MIN TEMP:  60; 6HR MAX TEMP:  80;

ATHENS         CLOUDY    73  70  88 CALM      29.99R
PALESTINE      CLOUDY    76  71  83 CALM      30.00S
JACKSONVILLE   CLOUDY    76  71  84 W5        30.03S
HENDERSON      CLOUDY    79  69  71 CALM      30.00S
6HR MIN TEMP:  65; 6HR MAX TEMP:  80;

CENTER         MOCLDY    84  73  69 W9        29.99S HX  90
6HR MIN TEMP:  64; 6HR MAX TEMP:  85;

NACOGDOCHES    PTSUNNY   81  73  78 W5        29.98F
6HR MIN TEMP:  59; 6HR MAX TEMP:  81;

LUFKIN         SUNNY     84  72  67 VRB6      29.98S
6HR MIN TEMP:  61; 6HR MAX TEMP:  84;

$$

SUPPLEMENTAL OBSERVATIONS (CENTRAL)

CITY           SKY/WX    TMP DP  RH WIND       PRES   REMARKS
LAKE TEXOMA      N/A     79  66  65 S5          N/A
CADDO GRASSLND   N/A     81  66  61 S6          N/A
PAT MAYSE LAKE   N/A     75  66  73 S1          N/A
GREENVILLE       N/A     79  66  65 SW6         N/A
LAKE LIMESTONE   N/A     81  73  78 SW8G17      N/A
MCGREGOR         N/A     82  77  83 SW6         N/A  HX  91
$$

SUPPLEMENTAL OBSERVATIONS (WEST)

CITY           SKY/WX    TMP DP  RH WIND       PRES   REMARKS
MILLERS CREEK    N/A     90  61  37 NW6         N/A
LBJ GRASSLAND    N/A     81  70  69 S8          N/A
COMANCHE         N/A     84  75  74 S6          N/A  HX  92
HAMBY            N/A     90  59  35 W5G16       N/A
IVIE RESERVOIR   N/A     90  68  48 SE7  C1F1C2F2C3F3C4F4C5F5C6F6C7F7C8F8C9!


USA.gov is the U.S. government's official web portal to all federal, state and local government web resources and services.